This is the latest recevied weather packets stored in our database for station/object SP2FH-13. If no packets are shown the sender has not sent any weather packets the latest 10 day(s).
| Time | Temp. | Humidity | Pressure | Rain* | Wind** | Luminosity | Snow |
|---|---|---|---|---|---|---|---|
| 1777568086 | 13.89° C | 43% | 1016.2 hPa | - | - | 38 W/m² | - |
| 1777566882 | 13.89° C | 39% | 1016.2 hPa | - | - | 40 W/m² | - |
| 1777565978 | 13.89° C | 39% | 1016.3 hPa | - | - | 65 W/m² | - |
| 1777565677 | 13.89° C | 39% | 1016.3 hPa | - | - | 59 W/m² | - |
| 1777565376 | 13.89° C | 39% | 1016.4 hPa | - | - | 45 W/m² | - |
| 1777565074 | 13.89° C | 39% | 1016.5 hPa | - | - | 40 W/m² | - |
| 1777564774 | 13.89° C | 39% | 1016.5 hPa | - | - | 46 W/m² | - |
| 1777564172 | 13.89° C | 39% | 1016.4 hPa | - | - | 52 W/m² | - |
| 1777563871 | 13.89° C | 40% | 1016.4 hPa | - | - | 52 W/m² | - |
| 1777563570 | 13.89° C | 39% | 1016.5 hPa | - | - | 55 W/m² | - |
| 1777563269 | 13.89° C | 38% | 1016.5 hPa | - | - | 53 W/m² | - |
| 1777562968 | 13.89° C | 38% | 1016.5 hPa | - | - | 47 W/m² | - |
| 1777562366 | 13.89° C | 37% | 1016.4 hPa | - | - | 56 W/m² | - |
| 1777562065 | 13.89° C | 36% | 1016.4 hPa | - | - | 72 W/m² | - |
| 1777561463 | 13.89° C | 36% | 1016.6 hPa | - | - | 89 W/m² | - |
| 1777559656 | 13.89° C | 38% | 1016.9 hPa | - | - | 193 W/m² | - |
| 1777559054 | 14.44° C | 34% | 1017 hPa | - | - | 196 W/m² | - |
| 1777558753 | 14.44° C | 35% | 1017.1 hPa | - | - | 181 W/m² | - |
| 1777557247 | 13.89° C | 36% | 1017.3 hPa | - | - | 230 W/m² | - |
| 1777556946 | 13.89° C | 35% | 1017.4 hPa | - | - | 239 W/m² | - |
| 1777556042 | 13.33° C | 35% | 1017.4 hPa | - | - | 261 W/m² | - |
| 1777555440 | 14.44° C | 32% | 1017.4 hPa | - | - | 331 W/m² | - |
| 1777555139 | 14.44° C | 32% | 1017.4 hPa | - | - | 345 W/m² | - |
| 1777554837 | 13.89° C | 32% | 1017.4 hPa | - | - | 516 W/m² | - |
| 1777554537 | 14.44° C | 32% | 1017.5 hPa | - | - | 363 W/m² | - |
* Rain since midnight (hover to see other rain measurements)
** Current wind speed in m/s (hover to see current wind gust speed)